NOAA 16 DEB

Satellite information

Favourite Embed

Satellite Type and Status

DEBRISIN ORBIT

Key statistics

Satellite NOAA 16 DEB at a glance.

Uptime

9215

Days in orbit

Revolutions

≈ 14.2

Per day

Orbit

SSO

Sun Synchronous Orbit

Inclination

98.6

Latest

Satellite identification and parameters

Extended collection of information and parameters for NOAA 16 DEB.

Object identification

Identified? True

Debris? True

Object name: NOAA 16 DEB

International designator: 2000-055HU

Object number (NORAD): 41351

Object ID (CCSDS): 41351

Country: UNITED STATES OF AMERICA (US)

Current information (Y/N): Y

RCS size: SMALL

Orbital parameters

Period: 101.075 minutes

Inclination: 98.6346 deg

SMA: 7187.678 km

Apoapsis: 815.863 km

Periapsis: 803.224 km

RAAN: 18.2073 deg

Eccentricy: 0.00087924

Argument of periapsis: 339.6084 deg

Mean anomaly: 20.4743 deg

Mean motion: 14.24688176 rev/day

Mean motion (dot): 0.00005815 rev/day2

B* drag term: 0.002515442 1/REarth

Two-line elements (TLE)

Creation date: Dec. 12, 2025, 10:14 a.m.

Reference frame: TEME

Reference center: EARTH

Epoch: Dec. 12, 2025, 1:37 a.m. UTC

TLE line 0: 0 NOAA 16 DEB

TLE line 1: 1 41351U 00055HU 25346.06760571 .00005815 00000-0 25154-2 0 9994

TLE line 2: 2 41351 98.6346 18.2073 0008792 339.6084 20.4743 14.24688176511736

Live tracking on map

Real-time ground track for satellite NOAA 16 DEB.

In-orbit conjunctions

A list of the most updated potential collisions computed for object NOAA 16 DEB.

Target Orbit TCA Probability of collision Miss distance Type
SCOUT G-1 R/B LEO 2025-04-04 11:06:54 0.0002370255 398.0 (m) ROCKET BODY
NOAA 12 SSO 2025-03-09 10:32:39 0.0002997465 55.0 (m) PAYLOAD
CZ-6A DEB LEO 2024-12-07 01:18:51 0.001545841 61.0 (m) DEBRIS
NOAA 16 DEB SSO 2024-07-11 01:47:05 0.0001073049 84.0 (m) DEBRIS

Associated space launch

The NOAA K, L and M POES satellites begin the fifth generation of improved environmental monitoring in support of NOAA missions. The instrument payload has significant improvements and additions/deletions. The instrument changes have effected the spacecraft subsystems and data formats.

NOAA 16 DEB was lifted into orbit during the mission ‘Titan II SLV | NOAA 16’, on board a Titan II SLV space rocket.

The launch took place on Sept. 21, 2000, 10:22 a.m. from Space Launch Complex 4W.

For more information about the launch, click the button.

Launch to space Titan II SLV | NOAA 16
Titan II SLV | NOAA 16

Agency: N/A

Status: Launch Successful

Launch date: Sept. 21, 2000, 10:22 a.m. UTC

Rocket: Titan II SLV

Launch pad: Space Launch Complex 4W

Location: Vandenberg SFB, CA, USA

...

Latest news about this satellite

There are no fresh news available about this satellite. Check back as we update our databases every day.


Newsletter sign-up

Weekly statistics, charts and insights to help you stay on top of the space industry.